Weather reports worldwide

Advertisment
Cazaux, France (7502): temperature & dewpoint: 10.09.2019 05:00:00 - 16.09.2019 05:00:00 (CEST)Cazaux, France (7502): temperature 5cm: 10.09.2019 05:00:00 - 16.09.2019 05:00:00 (CEST)Cazaux, France (7502): temperature -20cm & temperature -100cm: 10.09.2019 05:00:00 - 16.09.2019 05:00:00 (CEST)Cazaux, France (7502): wind speed & gusts: 10.09.2019 05:00:00 - 16.09.2019 05:00:00 (CEST)Cazaux, France (7502): wind direction: 10.09.2019 05:00:00 - 16.09.2019 05:00:00 (CEST)Cazaux, France (7502): reduced air pressure: 10.09.2019 05:00:00 - 16.09.2019 05:00:00 (CEST)Cazaux, France (7502): visibility: 10.09.2019 05:00:00 - 16.09.2019 05:00:00 (CEST)Cazaux, France (7502): precipitation: 10.09.2019 05:00:00 - 16.09.2019 05:00:00 (CEST)
Date & Time tt [°C] td [°C] tt 5cm [°C] tt -20cm [°C] tt -100cm [°C] ff [km/h] ff [kn] fx [km/h] fx [kn] dd ppp [hPa] vv [km] rr [mm]
16.09.2019 05:00:00 17,0 16,5 14,3 21,7 21,8 8 4 15 8 S 1019,4 7 0,0
16.09.2019 04:00:00 17,9 16,8 16,4 21,7 21,8 7 4 13 7 E 1019,4 17 0,0
16.09.2019 03:00:00 19,7 18,2 18,1 21,7 21,8 7 4 16 9 W 1020,0 33 0,0
16.09.2019 02:00:00 19,8 18,8 19,0 21,6 21,8 11 6 28 15 SW 1020,5 24 0,0
16.09.2019 01:00:00 19,9 19,4 16,4 21,6 21,8 15 8 20 11 SSW 1020,4 21 0,0
16.09.2019 00:00:00 19,3 18,1 16,4 21,6 21,7 3 1 16 8 W 1020,2 31 0,0
15.09.2019 23:00:00 19,0 17,5 16,9 21,5 21,8 3 2 14 7 WNW 1019,7 30 0,0
15.09.2019 22:00:00 19,8 17,9 17,1 21,4 21,7 3 2 16 8 N 1019,8 34 0,0
15.09.2019 21:00:00 20,5 18,1 19,1 21,4 21,8 10 5 21 11 SW 1020,7 36 0,0
15.09.2019 20:00:00 22,6 16,4 22,2 21,3 21,8 11 6 18 10 WNW 1019,9 55 0,0
15.09.2019 19:00:00 26,1 14,2 28,7 21,2 21,7 9 5 26 14 NW 1019,6 57 0,0
15.09.2019 18:00:00 27,7 13,2 31,5 21,1 21,7 19 10 28 15 NW 1019,2 50 0,0
15.09.2019 17:00:00 31,6 11,4 38,3 21,0 21,7 16 9 32 17 N 1019,1 60 0,0
15.09.2019 16:00:00 31,9 10,6 37,3 21,0 21,7 16 9 32 18 NNE 1019,6 60 0,0
15.09.2019 15:00:00 31,5 9,1 37,4 21,0 21,7 16 9 33 18 ENE 1020,5 60 0,0
15.09.2019 14:00:00 30,3 9,8 35,7 21,0 21,7 16 9 29 16 NE 1021,3 19 0,0
15.09.2019 13:00:00 29,2 10,8 34,6 21,0 21,7 9 5 24 13 E 1022,0 60 0,0
15.09.2019 12:00:00 27,9 11,0 31,7 21,1 21,7 7 4 14 8 NE 1022,3 57 0,0
15.09.2019 11:00:00 24,7 13,3 27,7 21,2 21,7 6 4 12 6 NE 1022,4 60 0,0
15.09.2019 10:00:00 21,3 14,7 21,5 21,2 21,7 6 3 10 5 NE 1022,5 60 0,0
15.09.2019 09:00:00 17,4 15,6 12,7 21,3 21,7 4 2 6 3 NNE 1022,4 37 0,0
15.09.2019 08:00:00 15,1 13,5 12,4 21,3 21,7 4 2 5 3 NNE 1022,5 36 0,0
15.09.2019 07:00:00 15,9 14,4 12,8 21,4 21,7 4 2 7 4 N 1022,4 42 0,0
15.09.2019 06:00:00 16,6 15,0 12,6 21,4 21,7 4 2 6 4 NNE 1022,2 36 0,0
15.09.2019 05:00:00 17,5 15,3 14,7 21,4 21,7 6 3 14 7 N 1022,5 34 0,0
15.09.2019 04:00:00 17,9 15,0 15,4 21,4 21,7 6 3 8 5 N 1022,6 38 0,0
15.09.2019 03:00:00 18,2 15,3 15,7 21,4 21,7 5 3 7 4 N 1023,0 36 0,0
15.09.2019 02:00:00 18,8 15,5 15,9 21,4 21,7 3 1 6 4 N 1023,3 39 0,0
15.09.2019 01:00:00 19,7 15,3 17,2 21,3 21,7 5 3 10 5 N 1023,5 40 0,0
15.09.2019 00:00:00 20,1 15,3 18,6 21,3 21,7 8 4 12 7 N 1023,5 46 0,0
14.09.2019 23:00:00 20,2 15,8 18,4 21,2 21,7 9 5 14 8 N 1023,4 44 0,0
14.09.2019 22:00:00 20,5 16,5 18,3 21,1 21,7 4 2 10 5 NNE 1023,5 43 0,0
14.09.2019 21:00:00 21,2 17,2 20,1 21,0 21,7 6 3 14 7 N 1023,5 37 0,0
14.09.2019 20:00:00 21,7 17,7 19,8 20,9 21,7 10 6 26 14 NE 1023,3 31 0,0
14.09.2019 19:00:00 21,5 17,5 20,8 20,8 21,7 14 8 31 17 ENE 1023,1 34 0,2
14.09.2019 18:00:00 28,2 14,1 29,3 20,7 21,7 21 12 31 17 ENE 1022,8 46 0,0
14.09.2019 17:00:00 31,6 11,4 37,6 20,6 21,7 23 12 34 19 ENE 1022,8 60 0,0
14.09.2019 16:00:00 31,8 14,0 37,7 20,6 21,7 9 5 26 14 SSE 1023,4 20 0,0
14.09.2019 15:00:00 29,8 14,4 31,1 20,5 21,7 8 4 17 9 NNW 1024,2 44 0,0
14.09.2019 14:00:00 27,8 18,8 32,3 20,5 21,7 5 3 16 8 SSW 1024,8 48 0,0
14.09.2019 13:00:00 24,7 20,0 24,7 20,6 21,7 0 0 10 5 N 1025,2 36 0,0
14.09.2019 12:00:00 22,3 20,2 24,5 20,6 21,7 4 2 10 5 ESE 1025,7 17 0,0
14.09.2019 11:00:00 21,2 20,7 20,7 20,6 21,7 3 1 10 6 ESE 1025,9 20 0,0
14.09.2019 10:00:00 19,8 19,6 19,7 20,6 21,7 5 3 11 6 S 1025,8 2,6 0,0
14.09.2019 09:00:00 19,0 18,8 16,4 20,6 21,7 4 2 6 3 S 1025,5 3,8 0,0
14.09.2019 08:00:00 17,1 16,8 16,4 20,7 21,7 0 0 7 4 N 1025,4 6 0,0
14.09.2019 07:00:00 18,0 17,7 17,6 20,7 21,7 3 1 11 6 W 1025,0 0,2 0,0
14.09.2019 06:00:00 19,0 18,7 16,6 20,7 21,7 8 4 12 6 S 1024,9 0,2 0,0
14.09.2019 05:00:00 17,9 17,4 15,8 20,7 21,7 6 3 14 8 S 1025,1 0,8 0,0
14.09.2019 04:00:00 17,2 16,7 13,8 20,8 21,7 10 6 12 7 SSW 1025,3 19 0,0
14.09.2019 03:00:00 16,3 15,5 14,2 20,8 21,7 6 4 9 5 S 1025,7 14 0,0
14.09.2019 02:00:00 17,7 17,1 15,3 20,7 21,7 5 3 11 6 SSW 1025,8 21 0,0
14.09.2019 01:00:00 17,4 16,8 14,2 20,7 21,7 8 4 13 7 S 1026,2 19 0,0
14.09.2019 00:00:00 18,1 17,3 14,6 20,6 21,7 0 0 7 4 N 1026,2 25 0,0
13.09.2019 23:00:00 18,6 17,4 14,8 20,6 21,8 2 1 13 7 W 1026,4 28 0,0
13.09.2019 22:00:00 19,8 17,8 18,3 20,5 21,8 11 6 19 10 SSW 1026,4 31 0,0
13.09.2019 21:00:00 21,5 18,5 19,4 20,3 21,7 10 5 15 8 SSW 1025,9 33 0,0
13.09.2019 20:00:00 25,3 15,9 24,4 20,2 21,7 2 1 13 7 SW 1025,6 51 0,0
13.09.2019 19:00:00 27,3 15,6 29,0 20,1 21,7 10 5 18 10 NW 1025,8 31 0,0
13.09.2019 18:00:00 27,1 16,1 28,6 20,0 21,7 12 7 19 10 WNW 1026,0 58 0,0
13.09.2019 17:00:00 28,2 15,1 33,2 19,9 21,8 15 8 21 12 WNW 1026,3 54 0,0
13.09.2019 16:00:00 27,5 14,5 32,9 19,8 21,7 12 7 22 12 W 1026,9 55 0,0
13.09.2019 15:00:00 27,3 15,0 33,5 19,8 21,8 15 8 23 12 WNW 1026,8 60 0,0
13.09.2019 14:00:00 27,1 15,5 33,2 19,8 21,8 18 10 23 12 SSW 1028,0 60 0,0
13.09.2019 13:00:00 25,4 15,4 31,3 19,8 21,7 9 5 18 10 SW 1028,7 53 0,0
13.09.2019 12:00:00 23,5 16,0 28,9 19,8 21,7 6 3 17 9 SW 1028,8 60 0,0
13.09.2019 11:00:00 22,2 15,1 25,1 19,9 21,7 6 3 12 7 E 1029,0 54 0,0
13.09.2019 10:00:00 19,3 15,6 21,2 19,9 21,8 9 5 15 8 NE 1029,3 49 0,0
13.09.2019 09:00:00 15,0 14,5 12,4 20,0 21,8 4 2 9 5 N 1029,2 29 0,0
13.09.2019 08:00:00 13,5 13,2 8,6 20,0 21,7 6 4 10 5 N 1029,3 25 0,0
13.09.2019 07:00:00 12,4 11,8 9,2 20,0 21,8 5 3 8 4 SE 1029,6 0,2 0,0
13.09.2019 06:00:00 15,4 14,4 11,8 20,1 21,8 4 2 14 8 N 1029,3 27 0,0
13.09.2019 05:00:00 15,9 14,8 13,8 20,1 21,7 8 5 17 9 N 1029,0 28 0,0
13.09.2019 04:00:00 16,2 15,1 14,6 20,1 21,8 14 7 18 10 N 1029,1 30 0,0
13.09.2019 03:00:00 16,4 15,1 14,7 20,1 21,8 12 6 20 11 N 1029,6 30 0,0
13.09.2019 02:00:00 16,5 14,7 14,6 20,1 21,8 13 7 20 11 N 1030,0 35 0,0
13.09.2019 01:00:00 16,2 14,0 14,5 20,1 21,8 13 7 16 9 N 1030,0 37 0,0
13.09.2019 00:00:00 16,6 13,5 14,7 20,0 21,8 12 6 14 8 N 1030,3 39 0,0
12.09.2019 23:00:00 17,1 13,6 15,3 19,9 21,8 11 6 19 11 N 1030,6 42 0,0
12.09.2019 22:00:00 18,0 13,3 16,4 19,9 21,8 13 7 19 10 N 1030,5 49 0,0
12.09.2019 21:00:00 18,4 13,3 17,1 19,8 21,8 14 8 23 13 NNW 1030,3 47 0,0
12.09.2019 20:00:00 20,5 12,2 20,7 19,6 21,8 16 9 31 17 NNW 1029,9 55 0,0
12.09.2019 19:00:00 22,9 11,0 25,4 19,5 21,8 18 10 31 17 NNW 1029,8 39 0,0
12.09.2019 18:00:00 23,9 11,2 28,0 19,4 21,8 19 11 30 16 NNW 1029,5 59 0,0
12.09.2019 17:00:00 24,4 11,7 29,9 19,3 21,8 21 11 29 16 NW 1029,8 18 0,0
12.09.2019 16:00:00 26,4 11,7 33,6 19,2 21,8 11 6 29 15 NNW 1030,4 60 0,0
12.09.2019 15:00:00 25,6 9,0 33,0 19,2 21,8 14 7 22 12 N 1031,2 60 0,0
12.09.2019 14:00:00 24,5 10,4 31,5 19,2 21,8 9 5 18 10 N 1031,7 60 0,0
12.09.2019 13:00:00 22,2 12,2 27,6 19,3 21,8 5 3 14 8 NW 1032,3 43 0,0
12.09.2019 12:00:00 18,8 14,9 19,0 19,3 21,9 3 2 11 6 E 1032,9 31 0,0
12.09.2019 11:00:00 15,2 15,0 16,2 19,4 21,8 8 4 19 10 NNW 1032,7 13 0,0
12.09.2019 10:00:00 14,2 14,0 14,6 19,5 21,8 9 5 16 9 NNE 1032,1 1,1 0,0
12.09.2019 09:00:00 13,9 13,7 12,3 19,6 21,9 11 6 16 9 N 1031,8 0,4 0,0
12.09.2019 08:00:00 11,8 11,5 7,7 19,6 21,9 0 0 7 4 N 1031,5 0,7 0,0
12.09.2019 07:00:00 9,1 8,6 5,7 19,7 21,9 0 0 3 1 N 1031,0 2,6 0,0
12.09.2019 06:00:00 9,8 9,3 6,6 19,8 21,9 0 0 5 3 N 1030,5 0,7 0,2
12.09.2019 05:00:00 12,3 11,8 8,4 19,8 21,9 5 3 10 5 N 1029,9 0,7 0,0
12.09.2019 04:00:00 12,0 11,5 9,0 19,8 21,9 8 4 11 6 N 1030,2 21 0,0
12.09.2019 03:00:00 11,7 10,9 9,2 19,9 21,9 10 5 12 6 N 1030,5 0,8 0,0
12.09.2019 02:00:00 12,7 12,1 9,2 19,9 21,9 6 3 9 5 N 1030,6 27 0,0
12.09.2019 01:00:00 13,5 12,7 9,0 19,9 21,9 4 2 7 4 N 1030,3 7 0,0
12.09.2019 00:00:00 14,2 12,9 11,4 19,8 21,9 5 3 15 8 NNW 1030,5 32 0,0
11.09.2019 23:00:00 15,2 13,4 13,5 19,8 21,9 11 6 22 12 N 1030,2 40 0,0
11.09.2019 22:00:00 15,8 13,5 14,3 19,7 21,9 16 8 27 15 N 1029,4 39 0,0
11.09.2019 21:00:00 16,6 13,3 15,4 19,7 21,9 16 9 29 16 NNW 1028,9 44 0,0
11.09.2019 20:00:00 18,3 12,1 18,5 19,6 21,9 17 9 32 17 NNW 1028,1 57 0,0
11.09.2019 19:00:00 20,3 11,0 22,7 19,5 21,9 22 12 35 19 NNW 1027,9 60 0,0
11.09.2019 18:00:00 20,8 10,9 23,1 19,5 21,9 19 10 30 16 NW 1027,7 56 0,0
11.09.2019 17:00:00 22,4 10,2 27,8 19,4 21,9 20 11 37 20 NNW 1027,4 39 0,0
11.09.2019 16:00:00 23,0 10,4 28,5 19,3 21,9 22 12 33 18 NW 1027,3 60 0,0
11.09.2019 15:00:00 22,7 11,7 28,0 19,3 21,9 22 12 37 20 NW 1027,2 60 0,0
11.09.2019 14:00:00 23,0 8,3 28,0 19,3 21,9 22 12 29 16 WNW 1027,2 60 0,0
11.09.2019 13:00:00 23,3 9,3 29,3 19,4 21,9 15 8 28 15 NNW 1027,1 20 0,0
11.09.2019 12:00:00 22,7 6,9 26,6 19,5 21,9 19 11 27 15 N 1027,2 50 0,0
11.09.2019 11:00:00 20,6 8,2 22,1 19,5 21,9 10 6 19 10 N 1026,9 42 0,0
11.09.2019 10:00:00 17,4 10,7 18,9 19,6 21,9 14 8 22 12 N 1026,4 28 0,0
11.09.2019 09:00:00 14,2 11,4 10,7 19,7 22,0 8 5 11 6 N 1025,7 22 0,0
11.09.2019 08:00:00 11,7 9,8 9,7 19,7 22,0 9 5 14 8 N 1024,9 43 0,0
11.09.2019 07:00:00 12,8 10,0 10,3 19,8 22,0 10 5 14 8 N 1023,9 48 0,0
11.09.2019 06:00:00 13,8 10,4 11,6 19,8 22,0 11 6 19 10 N 1023,2 46 0,0
11.09.2019 05:00:00 15,0 11,4 13,1 19,9 22,0 14 8 25 14 N 1023,0 41 0,0
11.09.2019 04:00:00 15,4 11,8 13,3 20,0 22,0 18 10 24 13 N 1022,9 38 0,0
11.09.2019 03:00:00 15,3 11,5 13,3 20,0 22,0 14 8 23 13 N 1022,8 33 0,0
11.09.2019 02:00:00 16,0 12,2 14,1 20,0 22,0 15 8 25 13 NNW 1022,6 42 0,0
11.09.2019 01:00:00 15,8 13,1 13,9 20,0 22,0 13 7 21 12 NNW 1022,0 32 0,0
11.09.2019 00:00:00 16,1 12,8 14,2 20,0 22,0 13 7 21 12 NNW 1021,8 33 0,0
10.09.2019 23:00:00 16,4 12,9 14,4 20,0 22,1 11 6 23 12 NNW 1021,8 34 0,0
10.09.2019 22:00:00 16,3 12,8 14,3 20,0 22,1 11 6 24 13 NNW 1021,3 36 0,0
10.09.2019 21:00:00 16,6 12,5 15,1 19,9 22,0 13 7 27 15 NNW 1020,1 40 0,0
10.09.2019 20:00:00 18,2 12,0 18,3 19,8 22,0 17 9 34 18 NNW 1019,1 50 0,0
10.09.2019 19:00:00 19,5 12,3 21,9 19,8 22,1 21 11 35 19 NNW 1018,4 58 0,0
10.09.2019 18:00:00 20,8 10,9 24,4 19,7 22,1 19 10 39 21 N 1017,4 46 0,0
10.09.2019 17:00:00 21,2 11,5 20,2 19,7 22,1 24 13 44 24 NNW 1016,7 44 0,0
10.09.2019 16:00:00 20,2 8,2 21,9 19,6 22,1 15 8 29 15 N 1016,2 58 0,0
10.09.2019 15:00:00 20,3 9,5 20,1 19,6 22,1 14 8 29 16 ENE 1015,9 59 0,0
10.09.2019 14:00:00 19,5 11,0 20,2 19,7 22,1 13 7 23 13 NNE 1015,7 50 0,0
10.09.2019 13:00:00 19,0 10,0 20,3 19,7 22,1 6 3 18 10 E 1015,2 58 0,0
10.09.2019 12:00:00 18,2 12,2 20,2 19,7 22,1 11 6 18 10 SE 1014,6 60 0,0
10.09.2019 11:00:00 16,8 13,5 16,9 19,8 22,1 11 6 21 11 SSE 1014,0 58 0,0
10.09.2019 10:00:00 15,3 13,8 13,5 19,9 22,1 16 8 22 12 SE 1013,2 27 1,0
10.09.2019 09:00:00 15,6 14,0 11,8 19,9 22,1 10 6 18 10 SE 1012,7 50 0,0
10.09.2019 08:00:00 12,7 10,8 11,2 20,0 22,1 0 0 16 9 N 1012,5 45 0,6
10.09.2019 07:00:00 14,1 10,5 10,2 20,0 22,1 14 8 34 19 WNW 1012,4 13 0,2
10.09.2019 06:00:00 13,0 10,9 9,2 20,0 22,1 9 5 17 9 W 1012,1 33 0,0
10.09.2019 05:00:00 12,4 10,8 9,3 20,0 22,1 6 4 11 6 W 1012,4 26 0,0

tt = temperature
td = dewpoint
tt 5cm = temperature 5cm
tt -20cm = temperature -20cm
tt -100cm = temperature -100cm
ff = wind speed
fx = gusts
dd = wind direction
ppp = reduced air pressure
vv = visibility
rr = precipitation

Next stations